Location: Albuquerque Trailhead
(34.7934°N, 106.3736°W)
Time: 10:39:03
(UTC+00:00)

Exosat Rocket - Pass Details

Date: 24 October 2021
Orbit: 759 x 2516 km, 72.3° (Epoch: 08 December)

Event Time Altitude Azimuth Distance (km) Brightness Sun altitude
Rises 11:27:03 0° 196° (SSW) 4,189 7.1 -23.7°
Reaches altitude 10° 11:29:26 10° 196° (SSW) 3,408 6.6 -23.2°
Maximum altitude 11:38:00 89° 107° (ESE) 1,762 5.2 -21.4°
Drops below altitude 10° 11:50:28 10° 20° (NNE) 4,811 7.8 -18.9°
Sets 11:54:27 0° 21° (NNE) 5,983 8.3 -18.0°
